Voltar ao catálogo

STARLINK-31298

AtivoComunicaçõesVLEO
NORAD 59167·PAYLOAD·🇺🇸 United States

Lançado Mar 4, 2024 de Cape Canaveral Space Force Station

Loading…

Próximas Passagens (próximas 24 horas)

TLE

AtualizadoSource: CelesTrak SupGP

Época: Sep 15, 2026, 03:02 UTC

1 59167C 24044R   26258.12687500  .00049848  00000+0  18057-2 0  2587
2 59167  42.9997 117.1687 0001512 277.7216 228.9922 15.27550832    15

Acompanhe STARLINK-31298 em tempo real com AllMySat

Download on the App Store